www.pogodaiklimat.ru

Погода и климат >> Архив погоды >> Чад >> Sarh


ПОГОДА в Sarh

  • Прогноз погоды в Sarh
  • Монитор погоды в Sarh
  • Климат города

АРХИВ ПОГОДЫ в Sarh

Время (UTC), дата Ветер
(напр.,м/с)
 
Видим.   Явления Облачность Т
(С)
Тd
(С)
f
(%)
Тe
(С)
Тes
(С)
Комфортность P
(гПа)
Po
(гПа)
Тmin
(С)
Tmax
(С)
R
(мм)
R24
(мм)
S
(см)
15 16.04 ЮЗ 3 10 км 9/4 1200 м
[Cb cap Ci sp]
+39.0 +16.2 26 +41 +43 опасность
перегрева
1005.4 965.8
18 16.04 Ю 2 10 км 9/1 1500 м
[Cb cap Ac cuf Ci sp]
+35.2 +17.7 36 +39 +39 очень
душно
1007.5 967.6 +40.3
21 16.04 Ю 4 10 км 9/1 1500 м
[Cb cap Ac cuf Ci sp]
+32.0 +16.1 38 +35 +35 очень
душно
1008.2 968.5
00 17.04 Ю 2 10 км 9/0
[Ac cuf Ci sp]
+29.0 +17.2 49 +33 +33 очень
душно
1007.3 967.7
06 17.04 ЮЗ 5 10 км 9/0
[Ci sp]
+28.4 +18.9 56 +34 +35 очень
душно
1009.2 969.4 +26.1
09 17.04 ЮЗ 5 10 км 9/0
[Ci sp]
+36.0 +17.6 34 +39 +47 очень
душно
1010.7 971.0
12 17.04 З 2 10 км 9/3 1200 м
[Cb calv Ci sp]
+39.4 +17.0 27 +42 +53 опасность
перегрева
1007.8 965.3
15 17.04 СВ 6 10 км 9/6 1200 м
[Cb calv Ci sp]
+40.0 +17.3 27 +43 +43 опасность
перегрева
1004.7 965.3
18 17.04 штиль 0 10 км 9/0
[Ac trans Ci sp]
+35.5 +18.3 36 +39 +39 очень
душно
1005.8 966.1 +40.5
21 17.04 штиль 0 10 км 9/0
[Ac trans Ci sp]
+32.0 +18.4 44 +37 +37 очень
душно
1006.8 967.3
00 18.04 штиль 0 10 км 9/0
[Ac trans Ci sp]
+29.2 +19.1 55 +35 +35 очень
душно
1007.0 967.5
03 18.04 штиль 0 10 км 9/0
[Ac trans Ci sp]
+28.5 +18.6 55 +34 +34 очень
душно
1008.8 969.3
06 18.04 Ю 5 10 км 9/0
[Ac trans Ci sp]
+30.5 +18.4 48 +35 +36 очень
душно
1010.5 970.7 +28.0
09 18.04 С 10 10 км гроза, ливневой дождь 10/5 900 м
[Cb cap Ac trans]
+24.2 +17.6 67 +28 +28 душно 1013.7 973.2
12 18.04 З 5 10 км гроза, ливневой дождь 10/4 900 м
[Cb cap As op]
+22.5 +19.0 81 +28 +29 душно 1013.0 972.3 18
15 18.04 ЮЗ 8 10 км слабый ливневой дождь, в посл. час гроза 10/4 900 м
[Cb cap As op]
+27.0 +21.9 74 +35 +35 очень
душно
1008.5 968.2
18 18.04 С 2 10 км {гроза, дождь} 10/1 900 м
[Sc diur, vesp Ac As]
+24.5 +20.0 76 +30 +30 очень
душно
1010.4 969.9 +35.2 20
21 18.04 штиль 0 10 км 9/0
[Ac As Ci sp]
+23.9 +21.4 86 +30 +30 очень
душно
1009.6 968.8
00 19.04 штиль 0 10 км 9/0
[Ac trans Ci sp]
+23.3 +19.8 81 +30 +30 очень
душно
1008.6 967.7
03 19.04 штиль 0 10 км 9/0
[Ac trans Ci sp]
+22.2 +20.1 88 +28 +28 душно 1008.9 968.1
06 19.04 Ю 2 10 км 9/0
[Ac trans Ci sp]
+22.5 +20.5 88 +29 +31 очень
душно
1010.6 969.7 +21.0 20
09 19.04 СЗ 3 10 км 9/0
[Ac trans Ci sp]
+29.5 +21.5 62 +37 +49 очень
душно
1010.7 970.2
12 19.04 З 1 10 км 9/0
[Ac trans Ci sp]
+35.0 +18.6 38 +39 +58 опасность
солнечного
удара
1007.7 967.5
15 19.04 Ю 3 10 км 9/0
[Ac trans Ci sp]
+37.2 +18.9 34 +41 +45 опасность
перегрева
1005.6 965.7
18 19.04 штиль 0 10 км 9/0
[Ac trans Ci sp]
+31.9 +21.2 53 +40 +40 очень
душно
1005.9 965.6 +38.0
21 19.04 штиль 0 10 км 9/0
[Ci sp]
+29.7 +17.4 48 +34 +34 очень
душно
1007.7 967.6
00 20.04 Ю 6 10 км 9/0
[Ci sp]
+29.0 +19.6 57 +35 +35 очень
душно
1006.8 967.1
06 20.04 Ю 2 10 км 9/0
[Ci sp]
+26.0 +21.6 77 +33 +35 очень
душно
1006.9 966.9 +23.5
09 20.04 Ю 7 10 км 9/0
[Ci sp]
+31.5 +21.5 55 +39 +43 очень
душно
1008.5 968.6
12 20.04 Ю 5 10 км 9/1 1200 м
[Cu hum Ci sp]
+36.5 +20.2 39 +43 +50 опасность
перегрева
1005.4 965.9
15 20.04 СВ 3 10 км 9/3 1200 м
[Cb cap Ci sp]
+39.0 +19.0 31 +38 +40 очень
жарко
1004.2 964.5
18 20.04 штиль 0 10 км 9/1 1500 м
[Cb cap Ac cuf Ci sp]
+35.0 +18.6 38 +39 +39 очень
душно
1005.9 966.0 +39.3
21 20.04 штиль 0 10 км 9/1 1500 м
[Cb cap Ac cuf Ci sp]
+32.5 +19.4 46 +38 +38 очень
душно
1005.8 966.2
00 21.04 Ю 3 10 км 9/0
[Ac cuf Ci sp]
+31.0 +18.3 47 +36 +36 очень
душно
1005.9 966.4
03 21.04 Ю 4 10 км 9/0
[Ac trans Ci sp]
+29.3 +20.8 60 +36 +36 очень
душно
1006.0 966.6
06 21.04 ЮЗ 4 10 км 9/0
[Ac trans Ci sp]
+29.8 +21.3 60 +37 +38 очень
душно
1007.9 968.2 +28.3
09 21.04 ЮЗ 6 10 км 9/0
[Ac trans Ci sp]
+33.6 +21.1 48 +41 +46 опасность
перегрева
1009.3 969.6
12 21.04 ЮЗ 6 10 км 9/1 1200 м
[Cu hum Ci sp]
+38.0 +18.2 31 +41 +47 опасность
перегрева
1006.3 966.9
15 21.04 ЮЗ 5 10 км 9/3 1200 м
[Cb cap Ci sp]
+39.0 +18.9 31 +43 +45 опасность
перегрева
1003.1 963.8
18 21.04 штиль 0 10 км зарница 9/1 900 м
[Cb cap Ac cuf Ci sp]
+35.3 +17.5 35 +39 +39 очень
душно
1004.9 965.2 +39.5
21 21.04 Ю 4 10 км зарница 9/1 900 м
[Cb cap Ac cuf Ci sp]
+32.0 +18.4 44 +37 +37 очень
душно
1007.1 967.4
00 22.04 Ю 3 10 км гроза без осадков 9/1 1500 м
[Cb cap Ac cuf Ci sp]
+30.2 +19.4 52 +36 +36 очень
душно
1007.1 967.6
03 22.04 З 2 10 км гроза без осадков 9/1 1500 м
[Cb cap Ac trans Ci sp]
+28.5 +18.6 55 +34 +34 очень
душно
1006.7 967.2
06 22.04 ЮЗ 4 10 км {гроза} 9/0
[Ac cast Ci sp]
+28.4 +20.4 62 +35 +36 очень
душно
1005.9 966.2 +27.0
12 22.04 ЮЗ 3 10 км 9/4 1200 м
[Cu med, cong Ci sp]
+38.0 +19.8 35 +43 +52 опасность
перегрева
1005.2 965.8
15 22.04 З 5 10 км 9/4 1200 м
[Cb cap Ac As Ci sp]
+39.5 +18.0 29 +43 +44 опасность
перегрева
1003.8 964.4
18 22.04 СВ 3 10 км зарница 9/4 1500 м
[Cb cap Ac As Ci sp]
+35.6 +18.3 36 +40 +40 очень
душно
1005.1 965.4 +40.0
21 22.04 Ю 4 10 км гроза без осадков 9/4 1500 м
[Cb cap Ac As Ci sp]
+31.3 +19.6 50 +37 +37 очень
душно
1006.5 966.9
00 23.04 З 7 10 км гроза без осадков 10/5 900 м
[Cb cap Ac As]
+30.6 +19.2 51 +36 +36 очень
душно
1006.2 966.8
06 23.04 Ю 3 10 км {гроза} 9/0
[Ac As Ci sp]
+19.1 +19 +20 1008.0 968.1 +26.0
09 23.04 Ю 5 10 км 9/0
[Ac As Ci sp]
+33.3 +19.5 44 +39 +42 очень
душно
1010.2 970.4
12 23.04 Ю 2 10 км 9/4 1200 м
[Cu med, cong Ac trans Ci sp]
+36.5 +20.6 40 +43 +50 опасность
перегрева
1008.7 969.1

 

Местоположение метеостанции Sarh (Чад): широта 9.15 долгота 18.38 высота над уровнем моря 365 м.

В архиве по умолчанию представлена погода в Sarh за последнюю неделю. Архивные данные за месяц целиком и за предыдущие месяцы, начиная с января 2011 года, Вы можете получить, выбрав интересующий диапазон дат из раскрывающегося списка и нажав кнопку "Ввод!".


*Определитесь, кто Вы:
робот инопланетянин человек

Внимание! Время в таблицах - всемирное. Для получения местного времени необходимо прибавить поправку, которая в Sarh равна 1 ч.

Смотрите также архив погоды в соседних городах и на ближайших метеорологических станциях:

Погода в Bousso (Чад) (234 км)
Погода в Moundou (Чад) (262 км)
Погода в Am-Timan (Чад) (295 км)
Погода в Bossangoa (ЦАР) (315 км)
Погода в Mongo (Чад) (339 км)
Погода в Pala (Чад) (380 км)
Погода в Bokoro (Чад) (388 км)
Погода в Bambari (ЦАР) (444 км)
Погода в Ati (Чад) (453 км)
Погода в Bouar (ЦАР) (466 км)

Пояснения к столбцам:

Ветер - указаны скорость ветра в м/с - средняя за 10 мин, порывы в срок и между сроками (в фигурных скобках) и направление, откуда дует ветер: С - северный, СВ - северо-восточный, В - восточный, ЮВ - юго-восточный, Ю - южный, ЮЗ - юго-западный, З - западный, СЗ - северо-западный.
Видимость - горизонтальная дальность видимости в метрах или километрах. При видимости от 1 до 10 км при отсутствии осадков обычно наблюдается дымка, при ухудшении видимости до 1 км и менее - туман. В сухую погоду видимость может ухудшаться дымом, пылью или мглою.
Явления - указаны атмосферные явления, наблюдавшиеся в срок или в последний час перед сроком; фигурными скобками обозначены явления, наблюдавшиеся между сроками (за 1-3 часа до срока); квадратными скобками обозначены град или гололедные отложения с указанием их диаметра в мм.
Облачность - указаны через наклонную черту общая и нижняя облачность в баллах и высота нижней границы облаков в метрах; квадратными скобками обозначены формы облаков: Ci - перистые, Cs - перисто-слоистые, Cc - перисто-кучевые, Ac - высококучевые, As - высокослоистые, Sc - слоисто-кучевые, Ns - слоисто-дождевые, Cu - кучевые, Cb - кучево-дождевые. Подробнее классификацию облаков см. в Атласе облаков (PDF).
T - Температура воздуха - температура, измеренная на высоте 2 м над землей.
Td - Температура точки росы - температура, при понижении до которой содержащийся в воздухе водяной пар достигнет насыщения.
f - Относительная влажность воздуха - влажноcть воздуха, измеренная на высоте 2 м над землей.
Te - Эффективная температура - температура, которую ощущает одетый по сезону человек в тени. Характеристика душности погоды. При расчете учитывается влияние влажности воздуха и скорости ветра на теплоощущения человека.
Tes - Эффективная температура на солнце - температура, которую ощущает человек, с поправкой на солнечный нагрев. Характеристика знойности погоды. Зависит от высоты солнца над горизонтом, облачности и скорости ветра. Ночью, в пасмурную погоду, а также при ветре 12 м/с и более поправка равна нулю.
P - Атмосферное давление - приведенное к уровню моря атмосферное давление.
Po - Атмосферное давление - измеренное на уровне метеостанции атмосферное давление.
Tmin - Минимальная температура - минимум температуры воздуха на высоте 2 м над землей.
Tmax - Максимальная температура - максимум температуры воздуха на высоте 2 м над землей.
R - Количество осадков - Количество выпавших осадков за период времени, мм. При наведении курсора мыши на число - период времени, за который выпало указанное количество осадков.
R24 - Количество осадков - Количество выпавших осадков за 24 часа, мм.
S - Снежный покров - Высота снежного покрова, см. При наведении курсора мыши на число - состояние снежного покрова и степень покрытия местности в баллах.